Location: Cointrin
(46.2167°N, 6.1167°E)
Time: 19:35:11
(UTC+00:00)

CSL-04 Rocket - Pass Details

Date: 08 February 2023
Orbit: 806 x 859 km, 98.8° (Epoch: 21 March)

Event Time Altitude Azimuth Distance (km) Brightness Sun altitude
Exits shadow 19:01:30 53° 112° (ESE) 1,012 3.7 -23.1°
Maximum altitude 19:02:23 61° 71° (ENE) 940 3.6 -23.2°
Drops below altitude 10° 19:07:44 10° 352° (N) 2,459 6.2 -24.1°
Sets 19:10:09 0° 349° (N) 3,406 7.0 -24.5°
